• In Russia
  • List of Countries
  • For 7 days
  • Water Temperature
  • Satellite Maps
  • Weather Map
  • Weather Widgets
  • user-avatar
    Login

    Hourly Weather Tashkent

    Today, 26 September, Tuesday

    Time Temperature Precipitation Wind Pressure Humidity
    00:00 +16°C° 0 mm 1 mps 723 mmHg 21%
    01:00 +16°C° 0 mm 1 mps 723 mmHg 22%
    02:00 +15°C° 0 mm 1 mps 723 mmHg 22%
    03:00 +15°C° 0 mm 1 mps 723 mmHg 22%
    04:00 +15°C° 0 mm 2 mps 723 mmHg 22%
    05:00 +15°C° 0 mm 2 mps 723 mmHg 21%
    06:00 +17°C° 0 mm 2 mps 723 mmHg 20%
    07:00 +18°C° 0 mm 2 mps 723 mmHg 19%
    08:00 +19°C° 0 mm 2 mps 724 mmHg 18%
    09:00 +21°C° 0 mm 2 mps 724 mmHg 16%
    10:00 +24°C° 0 mm 1 mps 724 mmHg 13%
    11:00 +27°C° 0 mm 2 mps 724 mmHg 11%
    12:00 +28°C° 0 mm 1 mps 723 mmHg 11%
    13:00 +28°C° 0 mm 1 mps 723 mmHg 10%
    14:00 +29°C° 0 mm 1 mps 723 mmHg 10%
    15:00 +28°C° 0 mm 1 mps 723 mmHg 11%
    16:00 +28°C° 0 mm 1 mps 722 mmHg 12%
    17:00 +28°C° 0 mm 1 mps 722 mmHg 13%
    18:00 +26°C° 0 mm 1 mps 722 mmHg 15%
    19:00 +24°C° 0 mm 2 mps 722 mmHg 17%
    20:00 +21°C° 0 mm 2 mps 722 mmHg 18%
    21:00 +21°C° 0 mm 2 mps 721 mmHg 19%
    22:00 +20°C° 0 mm 3 mps 721 mmHg 19%
    23:00 +20°C° 0 mm 3 mps 721 mmHg 19%

    Tomorrow, 27 September, Wednesday

    Time Temperature Precipitation Wind Pressure Humidity
    00:00 +20°C° 0 mm 3 mps 720 mmHg 21%
    01:00 +20°C° 0 mm 3 mps 720 mmHg 23%
    02:00 +20°C° 0 mm 3 mps 720 mmHg 25%
    03:00 +21°C° 0 mm 4 mps 720 mmHg 26%
    04:00 +21°C° 0 mm 4 mps 720 mmHg 26%
    05:00 +21°C° 0 mm 4 mps 720 mmHg 27%
    06:00 +21°C° 0 mm 4 mps 721 mmHg 27%
    07:00 +21°C° 0 mm 4 mps 721 mmHg 27%
    08:00 +22°C° 0 mm 4 mps 722 mmHg 27%
    09:00 +22°C° 0.1 mm 4 mps 723 mmHg 24%
    10:00 +23°C° 0.1 mm 4 mps 723 mmHg 22%
    11:00 +23°C° 0.1 mm 4 mps 724 mmHg 20%
    12:00 +25°C° 0 mm 4 mps 724 mmHg 19%
    13:00 +25°C° 0 mm 4 mps 724 mmHg 17%
    14:00 +26°C° 0 mm 3 mps 724 mmHg 16%
    15:00 +25°C° 0 mm 3 mps 724 mmHg 16%
    16:00 +25°C° 0 mm 3 mps 724 mmHg 16%
    17:00 +25°C° 0 mm 3 mps 724 mmHg 16%
    18:00 +23°C° 0 mm 2 mps 724 mmHg 18%
    19:00 +20°C° 0 mm 2 mps 724 mmHg 19%
    20:00 +18°C° 0 mm 2 mps 724 mmHg 21%
    21:00 +18°C° 0 mm 2 mps 724 mmHg 22%
    22:00 +17°C° 0 mm 2 mps 724 mmHg 22%
    23:00 +16°C° 0 mm 2 mps 724 mmHg 23%

    Day after tomorrow, 28 September, Thursday

    Time Temperature Precipitation Wind Pressure Humidity
    00:00 +16°C° 0 mm 2 mps 724 mmHg 24%
    01:00 +15°C° 0 mm 2 mps 724 mmHg 24%
    02:00 +15°C° 0 mm 2 mps 724 mmHg 25%
    03:00 +15°C° 0 mm 2 mps 724 mmHg 24%
    04:00 +15°C° 0 mm 1 mps 724 mmHg 24%
    05:00 +16°C° 0 mm 1 mps 724 mmHg 23%
    06:00 +16°C° 0 mm 1 mps 724 mmHg 24%
    07:00 +16°C° 0 mm 1 mps 724 mmHg 25%
    08:00 +18°C° 0 mm 1 mps 724 mmHg 25%
    09:00 +18°C° 0 mm 2 mps 724 mmHg 25%
    10:00 +19°C° 0 mm 2 mps 724 mmHg 25%
    11:00 +20°C° 0 mm 2 mps 724 mmHg 24%
    12:00 +20°C° 0 mm 3 mps 724 mmHg 25%
    13:00 +20°C° 0 mm 3 mps 724 mmHg 26%
    14:00 +20°C° 0 mm 4 mps 724 mmHg 26%
    15:00 +19°C° 0.1 mm 4 mps 724 mmHg 32%
    16:00 +16°C° 0.1 mm 5 mps 724 mmHg 38%
    17:00 +15°C° 0.1 mm 6 mps 724 mmHg 43%
    18:00 +14°C° 0.4 mm 5 mps 724 mmHg 49%
    19:00 +13°C° 0.4 mm 3 mps 725 mmHg 54%
    20:00 +14°C° 0.4 mm 2 mps 725 mmHg 59%
    21:00 +14°C° 0.1 mm 2 mps 725 mmHg 59%
    22:00 +14°C° 0.1 mm 2 mps 725 mmHg 58%
    23:00 +14°C° 0.1 mm 1 mps 725 mmHg 57%

    29 September, Friday

    Time Temperature Precipitation Wind Pressure Humidity
    00:00 +14°C° 0 mm 2 mps 724 mmHg 57%
    01:00 +13°C° 0 mm 2 mps 724 mmHg 56%
    02:00 +13°C° 0 mm 2 mps 724 mmHg 55%
    03:00 +13°C° 0 mm 2 mps 724 mmHg 56%
    04:00 +13°C° 0 mm 2 mps 724 mmHg 56%
    05:00 +12°C° 0 mm 2 mps 724 mmHg 57%
    06:00 +13°C° 0 mm 2 mps 724 mmHg 54%
    07:00 +13°C° 0 mm 2 mps 724 mmHg 52%
    08:00 +14°C° 0 mm 2 mps 725 mmHg 49%
    09:00 +15°C° 0 mm 2 mps 725 mmHg 45%
    10:00 +16°C° 0 mm 3 mps 725 mmHg 40%
    11:00 +17°C° 0 mm 3 mps 725 mmHg 35%
    12:00 +17°C° 0.1 mm 3 mps 725 mmHg 36%
    13:00 +17°C° 0.1 mm 3 mps 725 mmHg 36%
    14:00 +16°C° 0.1 mm 2 mps 725 mmHg 36%
    15:00 +16°C° 0.2 mm 2 mps 725 mmHg 39%
    16:00 +15°C° 0.2 mm 2 mps 725 mmHg 41%
    17:00 +15°C° 0.2 mm 2 mps 725 mmHg 44%
    18:00 +14°C° 0.3 mm 2 mps 726 mmHg 47%
    19:00 +14°C° 0.3 mm 2 mps 726 mmHg 49%
    20:00 +13°C° 0.3 mm 2 mps 727 mmHg 52%
    21:00 +12°C° 0 mm 2 mps 727 mmHg 52%
    22:00 +12°C° 0 mm 1 mps 727 mmHg 52%
    23:00 +12°C° 0 mm 1 mps 727 mmHg 52%

    30 September, Saturday

    Time Temperature Precipitation Wind Pressure Humidity
    00:00 +11°C° 0 mm 1 mps 727 mmHg 53%
    01:00 +10°C° 0 mm 1 mps 727 mmHg 54%
    02:00 +8°C° 0 mm 2 mps 728 mmHg 55%
    03:00 +9°C° 0 mm 1 mps 728 mmHg 54%
    04:00 +9°C° 0 mm 1 mps 728 mmHg 53%
    05:00 +9°C° 0 mm 1 mps 728 mmHg 52%
    06:00 +9°C° 0 mm 1 mps 729 mmHg 48%
    07:00 +10°C° 0 mm 1 mps 729 mmHg 45%
    08:00 +11°C° 0 mm 1 mps 729 mmHg 41%
    09:00 +13°C° 0 mm 1 mps 729 mmHg 36%
    10:00 +15°C° 0 mm 1 mps 729 mmHg 32%
    11:00 +16°C° 0 mm 2 mps 729 mmHg 27%
    12:00 +17°C° 0 mm 2 mps 728 mmHg 25%
    13:00 +18°C° 0 mm 2 mps 728 mmHg 22%
    14:00 +19°C° 0 mm 2 mps 728 mmHg 19%
    15:00 +19°C° 0 mm 2 mps 728 mmHg 19%
    16:00 +19°C° 0 mm 2 mps 728 mmHg 19%
    17:00 +19°C° 0 mm 2 mps 728 mmHg 19%
    18:00 +17°C° 0 mm 2 mps 728 mmHg 21%
    19:00 +15°C° 0 mm 2 mps 728 mmHg 23%
    20:00 +13°C° 0 mm 3 mps 728 mmHg 25%
    21:00 +12°C° 0 mm 3 mps 728 mmHg 26%
    22:00 +12°C° 0 mm 3 mps 727 mmHg 26%
    23:00 +12°C° 0 mm 2 mps 727 mmHg 27%

    1 October, Sunday

    Time Temperature Precipitation Wind Pressure Humidity
    00:00 +12°C° 0 mm 2 mps 727 mmHg 28%
    01:00 +12°C° 0 mm 2 mps 727 mmHg 28%
    02:00 +12°C° 0 mm 2 mps 726 mmHg 29%
    03:00 +12°C° 0 mm 2 mps 726 mmHg 29%
    04:00 +12°C° 0 mm 1 mps 726 mmHg 30%
    05:00 +12°C° 0 mm 1 mps 726 mmHg 31%
    06:00 +13°C° 0 mm 1 mps 726 mmHg 30%
    07:00 +14°C° 0 mm 1 mps 726 mmHg 29%
    08:00 +15°C° 0 mm 1 mps 726 mmHg 28%
    09:00 +18°C° 0 mm 1 mps 726 mmHg 26%
    10:00 +20°C° 0 mm 1 mps 725 mmHg 24%
    11:00 +22°C° 0 mm 1 mps 725 mmHg 22%
    12:00 +23°C° 0 mm 1 mps 725 mmHg 22%
    13:00 +24°C° 0 mm 2 mps 724 mmHg 21%
    14:00 +25°C° 0 mm 2 mps 724 mmHg 21%
    15:00 +25°C° 0 mm 2 mps 724 mmHg 22%
    16:00 +25°C° 0 mm 2 mps 724 mmHg 22%
    17:00 +24°C° 0 mm 2 mps 723 mmHg 23%
    18:00 +23°C° 0 mm 2 mps 723 mmHg 25%
    19:00 +21°C° 0 mm 2 mps 723 mmHg 26%
    20:00 +20°C° 0 mm 2 mps 723 mmHg 27%
    21:00 +20°C° 0 mm 2 mps 723 mmHg 28%
    22:00 +19°C° 0 mm 3 mps 723 mmHg 29%
    23:00 +19°C° 0 mm 3 mps 722 mmHg 31%
    Show more